Torna al catalogo

STARLINK-36915

AttivoComunicazioniVLEO
NORAD 68061·PAYLOAD·🇺🇸 United States

Lanciato Mar 2, 2026 da Vandenberg Space Force Base

Loading…

Prossimi Passaggi (prossime 24 ore)

TLE

AggiornatoSource: CelesTrak SupGP

Epoca: Sep 14, 2026, 21:15 UTC

1 68061C 26041X   26257.88590278  .00051228  00000+0  15136-2 0  2575
2 68061  53.1582 245.6800 0001363  96.7918 169.5258 15.34364548    15

Traccia STARLINK-36915 in tempo reale con AllMySat

Download on the App Store